Regional Weather Roundup
Issued by NWS San Diego, CA

Home | Current Version | Previous Version | Text Only | Print | Product List | Glossary On
Versions: 1 2 3 4 5 6 7 8 9 10 11 12 13 14 15 16 17 18 19 20 21 22 23 24 25 26 27 28 29 30 31 32 33 34 35 36 37 38 39 40 41 42 43 44 45 46 47 48 49 50
000
ASUS46 KSGX 290911
RWRSGX

SAN DIEGO HOURLY WEATHER ROUNDUP
NATIONAL WEATHER SERVICE SAN DIEGO CA
200 AM PDT FRI MAY 29 2015

NOTE: "FAIR" INDICATES FEW OR NO CLOUDS BELOW 12,000 FEET WITH NO
SIGNIFICANT WEATHER AND/OR OBSTRUCTIONS TO VISIBILITY.

CAZ042-043-060-061-PZZ750-775-291000-

GREATER SAN DIEGO AREA

CITY           SKY/WX    TMP DP  RH WIND       PRES   REMARKS
LINDBERGH FLD  CLOUDY    62  55  77 SE6       29.97F
POINT LOMA       N/A     60  56  86 S2          N/A
CHULA VISTA      N/A     61  58  90 CALM      29.89F
IMPERIAL BEACH CLOUDY    61  56  83 SW3       29.96F
BROWN FIELD    CLOUDY    58  56  93 CALM      29.95F
MIRAMAR MCAS   CLOUDY    63  55  75 CALM      29.95F
MONTGOMERY FLD CLOUDY    59  55  87 CALM      29.96S

$$

NORTH SAN DIEGO COUNTY

CITY           SKY/WX    TMP DP  RH WIND       PRES   REMARKS
CAMP PENDLETON CLOUDY    61  56  83 CALM      29.95S
OCEANSIDE AP   CLOUDY    62  57  83 SE7       29.95S
OCEANSIDE HBR    N/A     62  59  91 SW7       29.98S
VISTA            N/A     60  55  83 CALM      29.93F
CARLSBAD       CLOUDY    61  56  83 SE5       29.95S
DEL MAR          N/A     60  58  92 SW1       29.98F
LA JOLLA SCRIP   N/A    N/A N/A N/A CALM      29.93F
FALLBROOK        N/A     59  59 100 CALM      29.95S
ESCONDIDO        N/A     60  57  91 CALM      29.97F
SAN MARCOS       N/A     60  56  87 CALM      29.93F
POWAY            N/A     58  55  88 E2        29.97F

$$

EAST SAN DIEGO COUNTY

CITY           SKY/WX    TMP DP  RH WIND       PRES   REMARKS
RAMONA         FOG       54  54 100 CALM      29.96S VSB 1/4
SANTEE LAKES     N/A     58  56  91 CALM      29.95F
LA MESA          N/A     59  56  90 CALM      29.90F
JAMUL            N/A     56  54  94 CALM      29.94F
DESCANSO N       N/A     53  41  64 CALM      29.81S
MT. LAGUNA OBS   N/A     62  28  28 W3        29.72F
CAMPO            N/A     49  44  83 E6        29.95S

$$

ORANGE COUNTY AND THE LOS ANGELES BASIN

CITY           SKY/WX    TMP DP  RH WIND       PRES   REMARKS
JOHN WAYNE AP  CLOUDY    61  56  83 SW5       29.95S
LAKE FOREST FR   N/A     58  53  85 CALM      29.85S
SANTA ANA        N/A     63  57  80 CALM      29.91R
HUNTINGTON BCH   N/A     60  58  93 NW3       29.97S
LOS ALAMITOS   CLOUDY    61  57  88 SW2       29.95S
FULLERTON      CLOUDY    62  56  80 SE3       29.95S
LONG BEACH     MOCLDY    61  55  81 CALM      29.95S
L.A. AP        CLOUDY    59  56  89 W5        29.96S
L.A. DOWNTOWN  CLEAR     59  55  87 CALM      29.95S

$$

THE INLAND EMPIRE

CITY           SKY/WX    TMP DP  RH WIND       PRES   REMARKS
CORONA         CLEAR     57  56  97 W6        29.95S
CHINO          CLEAR     58  55  90 W7        29.96S
ONTARIO        CLEAR     59  54  83 W5        29.95R
RIVERSIDE AP   CLEAR     60  55  83 W3        29.95S
RIV CYN CREST    N/A     62  62  97 CALM        N/A
MORENO VALLEY    N/A     60  57  89 CALM      29.92F
MARCH ARB      CLEAR     57  54  89 W3        29.95S
HORSETHIEF CYN   N/A     58  50  76 CALM      29.90F
PERRIS           N/A     61  56  83 SE1         N/A
MENIFEE          N/A     62  57  86 CALM      30.00F
HEMET EAST       N/A     61  51  69 CALM      29.90F
FRENCH VALLEY  FAIR      57  54  88 CALM      29.96S
TEMECULA         N/A     57  56  96 E1        29.92F

$$

SAN BERNARDINO AND RIVERSIDE COUNTY MOUNTAINS

CITY           SKY/WX    TMP DP  RH WIND       PRES   REMARKS
BIG BEAR AP    CLEAR     41  28  60 CALM      30.22S
ANGELUS OAKS     N/A     54  33  45 CALM      29.82F
PINE COVE        N/A     59  35  40 N1        29.87F

$$

SOUTHERN DESERT INCLUDING THE COACHELLA VALLEY

CITY           SKY/WX    TMP DP  RH WIND       PRES   REMARKS
PALM SPRINGS   CLEAR     77  53  43 CALM      29.84S
THOUSAND PALMS   N/A     81  50  33 CALM      29.81
PALM DESERT      N/A     78  55  44 CALM        N/A
THERMAL        CLEAR     67  51  56 SW3       29.78S
BLYTHE         CLEAR     79  35  20 CALM      29.81S
IMPERIAL AP    CLEAR     72  52  49 E3        29.77S
EL CENTRO NAS  CLEAR     69  41  36 NE5       29.79F
YUMA AZ        CLEAR     74  42  31 SE6       29.81F

$$

UPPER DESERT

CITY           SKY/WX    TMP DP  RH WIND       PRES   REMARKS
VICTORVILLE AP CLEAR     64  30  27 S6        29.98S
HESPERIA         N/A     64  36  35 W3        29.98F
APPLE VALLEY     N/A     64  32  30 CALM      30.04S
PALMDALE       CLEAR     68  35  29 SW9       29.96F
LANCASTER      CLEAR     68  28  22 W12       29.95S
EDWARDS AFB    CLEAR     65  30  27 SW10      29.91F
DAGGETT        CLEAR     73  30  20 W12       29.90S
29 PALMS N     CLEAR     74  35  24 N7        29.97S
NEEDLES        CLEAR     85  20   9 SW3       29.83R

$$

REGIONAL REPORTS

CITY           SKY/WX    TMP DP  RH WIND       PRES   REMARKS
SANTA BARBARA  CLEAR     58  55  90 E7        29.92F
SANDBERG       CLEAR     66  30  26 NW17      30.08F
LAS VEGAS NV   PTCLDY    83  27  13 S10       29.84R
PHOENIX AZ     PTCLDY    78  35  21 SW6       29.84S
TIJUANA        CLOUDY    59  54  82 N5        29.99S
ENSENADA NW      N/A     60  32  34 S1        29.94S

$$

OFFSHORE ISLANDS

CITY           SKY/WX    TMP DP  RH WIND       PRES   REMARKS
CATALINA ARPT  FOG       54  54 100 NE3       29.97S VSB<1/4
SAN NICOLAS IS CLOUDY   N/A N/A N/A NW15      29.94F

$$

MARINE AND OFFSHORE BUOY REPORTS

STATION/POSITION SKY/WX   TEMP    WIND        PRES    SWELL
                          AIR SEA DIR/SP/G            HT/PER/DIR
                          (F)     (DEG/KT/KT) (MB)    (FT/S/D)
TANNER BANKS               58 60  320/ 14/ 19 1015.0F   5/230/15
S CLEMENTE BASIN           59 63  290/  6/  8 1014.4F   3/180/16
SAN NICOLAS IS.               60                N/A     5/250/14
SO. S. ROSA ISLA           56 60  320/ 21/ 25 1013.4F   3/13
W. S. BARBARA CH           54 54  320/ 21/ 27 1013.5F   3/270/16
M. S. BARBARA CH           58 59  190/  4/  6 1013.8F
S. MONICA BASIN            59 62  260/  4/  6 1014.2F   3/190/15
S PEDRO CHANNEL               63                N/A     2/190/15
DANA POINT                    64                N/A     2/220/14
OCEANSIDE OFFSHR              65                N/A     3/210/17
TORREY PINES OTR              65                N/A     3/230/15
LA JOLLA 1                 61 65  230/  2/  3 1014.5
MISSION BAY BUOY              65                N/A     3/210/17
SAN DIEGO BAY                 66              1015.0S
POINT LOMA SOUTH              64                N/A     3/220/15

$$




USA.gov is the U.S. government's official web portal to all federal, state and local government web resources and services.